Lexington Weather

Lexington, Massachusetts, USA

56°F
5/17/2024 10:55pm 
  • Lexington Conditions: Mostly cloudy
  • Temperature: 55.9°F / 13.3°CColder 1.5°F than last hour.
  • Dew Point: 50.2°FDecreased 0.3°Fsince last hour.
  • Relative Humidity: 81%Increased 3.0% since last hour.
  • Wind: Calm, 10-min avg: Calm, gust: None
  • Barometer: 29.96 in Steady
  • Visibility: 10 miles
  • Rain Today: 0.00 in
  •   

Regional Weather Roundup
for Boston, MA

        
000
ASUS41 KBOX 142310
RWRBOX

REGIONAL WEATHER ROUNDUP
NATIONAL WEATHER SERVICE BOSTON/NORTON MA
700 PM EDT TUE MAY 14 2024

NOTE:  "FAIR" INDICATES FEW OR NO CLOUDS BELOW 12,000 FEET WITH NO 
SIGNIFICANT WEATHER AND/OR OBSTRUCTIONS TO VISIBILITY.

MAZALL-150000-
EASTERN MASSACHUSETTS
  
CITY           SKY/WX    TMP DP  RH WIND       PRES   REMARKS
BOSTON         MOCLDY    69  53  56 S16G25    29.89R                  
BEVERLY        PTCLDY    70  53  54 S15G26    29.87S                  
LAWRENCE       PTCLDY    76  54  46 S9G22     29.87R                  
BEDFORD        PTCLDY    74  53  48 SW14G26   29.86S                  
NORWOOD        PTCLDY    70  53  54 S14G22    29.91R                  
MARSHFIELD     PTCLDY    66  52  59 SW14G20   29.92S                  
PLYMOUTH       PTCLDY    63  52  67 S8        29.94S                  
TAUNTON        MOCLDY    64  52  64 S12G18    29.95S                  
NEW BEDFORD    MOCLDY    60  53  77 SW14      29.97S                  
$$

MAZALL-150000-
CAPE COD AND THE ISLANDS
  
CITY           SKY/WX    TMP DP  RH WIND       PRES   REMARKS
FALMOUTH       CLEAR     63  50  63 SW17G23   29.98S                  
HYANNIS        MOCLDY    58  51  78 S12G22    29.97S                  
CHATHAM        MOCLDY    57  50  77 SW9       30.00S                  
PROVINCETOWN   PTCLDY    58  54  86 S15G21    29.96S                  
NANTUCKET      NOT AVBL                                               
MARTHAS VNYRD  MOCLDY    57  52  83 SW10G21   29.99S                  
$$
 
MAZALL-150000-
CENTRAL AND WESTERN MASSACHUSETTS
  
CITY           SKY/WX    TMP DP  RH WIND       PRES   REMARKS
WORCESTER      PTCLDY    72  52  49 SW9G25    29.91S                  
FITCHBURG      PTCLDY    78  52  40 SW12G22   29.87S                  
ORANGE         MOSUNNY   74  54  49 S15G23    29.88R                  
SPRINGFIELD    MOSUNNY   73  55  52 S17G24    29.85R                  
WESTFIELD      PTSUNNY   74  56  53 S15G22    29.88R                  
NORTH ADAMS    MOSUNNY   76  52  43 S12G23    29.86R                  
PITTSFIELD     MOSUNNY   71  50  47 SW14G26   29.88R                  
$$
 
RIZALL-150000-
RHODE ISLAND
  
CITY           SKY/WX    TMP DP  RH WIND       PRES   REMARKS
PROVIDENCE     MOCLDY    64  55  72 S12       29.96R                  
NEWPORT        MOCLDY    57  52  83 S9        29.98S                  
BLOCK ISLAND   MOCLDY    55  52  89 S14       29.99S                  
SMITHFIELD     MOCLDY    68  52  56 SW8       29.94R                  
WESTERLY       MOCLDY    58  51  78 S10G22    29.98S                  
$$
 
CTZALL-150000-
CONNECTICUT
  
CITY           SKY/WX    TMP DP  RH WIND       PRES   REMARKS
BRADLEY INTL   PTSUNNY   73  55  53 S18       29.90R                  
HARTFORD       PTSUNNY   70  56  61 S14G25    29.92R                  
PLAINVILLE     MOCLDY    70  58  65 S10       29.92R                  
BRIDGEPORT     CLOUDY    65  56  72 S5        29.94F                  
DANBURY        CLOUDY    70  56  61 S8        29.94S                  
GROTON         MOCLDY    60  55  83 S8        29.97S                  
NEW HAVEN      CLOUDY    66  58  75 S7        29.95F                  
CHESTER        CLOUDY    64  55  72 S6G13     29.97R                  
MERIDEN        PTSUNNY   68  54  60 S10G18    29.94R                  
WILLIMANTIC    MOCLDY    68  54  60 S8G18     29.94R                  
OXFORD         PTSUNNY   66  57  72 S7        29.96R                  
$$

MEZ002-015-021-024-NHZ003-005-008-011-012-014-VTZ005-008-150000-
NORTHERN NEW ENGLAND
  
CITY           SKY/WX    TMP DP  RH WIND       PRES   REMARKS
PORTLAND ME    PTCLDY    61  52  72 S8        29.88S                  
BANGOR ME      MOCLDY    59  48  67 S13       29.93S                  
CONCORD NH     CLEAR     79  50  36 S10G21    29.82S                  
MANCHESTER NH  MOCLDY    81  50  33 SW12      29.82S                  
NASHUA NH      PTCLDY    79  52  38 SW8       29.85S                  
PORTSMOUTH NH  PTCLDY    71  54  54 SE14      29.83S                  
JAFFREY NH     PTCLDY    76  52  43 S14G28    29.88S                  
KEENE NH       MOSUNNY   77  53  43 SW13G22   29.84R                  
BURLINGTON VT  PTSUNNY   65  59  81 E8        29.81F                  
MT. WASHINGTON NOT AVBL                                               
$$

NYZ052-076-150000-
EASTERN NEW YORK
  
CITY           SKY/WX    TMP DP  RH WIND       PRES   REMARKS
ALBANY         PTSUNNY   77  53  43 SE15G26   29.83R                  
NEW YORK CITY  CLOUDY    68  54  60 S9        29.93S                  
$$
 
ANZALL-150000-
MARINE OBSERVATIONS
  
STATION/POSITION TIME  TEMP    WIND        PRES    VSBY  WAVE
                       AIR SEA DIR/SP/G                  HT/PER
                 (UTC) (F)     (DEG/KT/KT) (MB)    (MI)  (FT/S)
BOSTON BUOY      2250      52  200/ 16/ 17 1012.7R         3/ 4
BUZZARDS BAY     2200   55     200/ 21/ 23 1015.6F
NANTUCKET SOUND  2250   55 55  200/ 16/ 19 1015.0R         2/ 3
MASS BAY-STELLWA 2104   57 52  170/ 16/ 19 1012.5F  1 7/8  3/ 5
ISLE OF SHOALS   2200   58     160/ 25/ 26 1010.2F
S OF BLOCK IS    2256      51                N/A           3/ 3
$$

......................KEY.........................
  SKY/WX - SKY CONDITION/PRESENT WEATHER
  TMP    - TEMPERATURE IN FAHRENHEIT
  DWPT   - DEWPOINT IN FAHRENHEIT
  RH     - RELATIVE HUMIDITY IN PERCENT
  WIND   - DIRECTION AND SPEED IN MPH
  PRES   - MEAN SEA LEVEL PRESSURE IN INCHES OF HG
  WCI    - WIND CHILL INDEX
  VSB    - VISIBILITY IN MILES
  HX     - HEAT INDEX
  TC     - TEMPERATURE IN CELSIUS
  VRB    - VARIABLE WIND DIRECTION
  N/A    - NOT AVAILABLE
  
      

Other recent Regional Weather Roundups

Fri May 17, 10:10pm EDT

Fri May 17, 9:10pm EDT

Fri May 17, 8:10pm EDT

Fri May 17, 7:10pm EDT

Fri May 17, 6:10pm EDT

Fri May 17, 5:10pm EDT

Fri May 17, 4:10pm EDT

Fri May 17, 3:10pm EDT

Fri May 17, 2:10pm EDT

Fri May 17, 1:10pm EDT

Fri May 17, 12:10pm EDT

Fri May 17, 11:10am EDT

Fri May 17, 10:10am EDT

Fri May 17, 9:10am EDT

Fri May 17, 8:10am EDT

Fri May 17, 7:10am EDT

Fri May 17, 6:10am EDT

Fri May 17, 5:10am EDT

Fri May 17, 4:10am EDT

Fri May 17, 3:10am EDT

Fri May 17, 2:10am EDT

Fri May 17, 1:10am EDT

Fri May 17, 12:10am EDT

Thu May 16, 11:10pm EDT

Thu May 16, 10:10pm EDT

Thu May 16, 9:10pm EDT

Thu May 16, 8:10pm EDT

Thu May 16, 7:10pm EDT

Thu May 16, 6:10pm EDT

Thu May 16, 5:10pm EDT

Thu May 16, 4:10pm EDT

Thu May 16, 3:10pm EDT

Thu May 16, 2:10pm EDT

Thu May 16, 1:10pm EDT

Thu May 16, 12:10pm EDT

Thu May 16, 11:10am EDT

Thu May 16, 10:10am EDT

Thu May 16, 9:10am EDT

Thu May 16, 8:10am EDT

Thu May 16, 7:10am EDT

Thu May 16, 6:10am EDT

Thu May 16, 5:10am EDT

Thu May 16, 4:10am EDT

Thu May 16, 3:10am EDT

Thu May 16, 2:10am EDT

Thu May 16, 1:10am EDT

Thu May 16, 12:10am EDT

Wed May 15, 11:10pm EDT

Wed May 15, 10:10pm EDT

Wed May 15, 9:10pm EDT

Wed May 15, 8:10pm EDT

Wed May 15, 7:10pm EDT

Wed May 15, 6:10pm EDT

Wed May 15, 5:10pm EDT

Wed May 15, 4:10pm EDT

Wed May 15, 3:10pm EDT

Wed May 15, 2:10pm EDT

Wed May 15, 1:10pm EDT

Wed May 15, 12:10pm EDT

Wed May 15, 11:10am EDT

Wed May 15, 10:10am EDT

Wed May 15, 9:10am EDT

Wed May 15, 8:10am EDT

Wed May 15, 7:10am EDT

Wed May 15, 6:10am EDT

Wed May 15, 5:10am EDT

Wed May 15, 4:10am EDT

Wed May 15, 3:10am EDT

Wed May 15, 2:10am EDT

Wed May 15, 1:10am EDT

Wed May 15, 12:10am EDT

Tue May 14, 11:10pm EDT

Tue May 14, 10:10pm EDT

Tue May 14, 9:10pm EDT

Tue May 14, 8:10pm EDT

Tue May 14, 6:10pm EDT

Tue May 14, 5:10pm EDT

Tue May 14, 4:10pm EDT

Tue May 14, 3:10pm EDT

Tue May 14, 2:10pm EDT

Tue May 14, 1:10pm EDT

Tue May 14, 12:10pm EDT

Tue May 14, 11:10am EDT

Tue May 14, 10:10am EDT

Tue May 14, 9:10am EDT

Tue May 14, 8:10am EDT

Tue May 14, 7:10am EDT

Tue May 14, 6:10am EDT

Tue May 14, 5:10am EDT

Tue May 14, 4:10am EDT

Tue May 14, 3:10am EDT

Tue May 14, 2:10am EDT

Tue May 14, 1:10am EDT

Tue May 14, 12:10am EDT

Mon May 13, 11:10pm EDT

Mon May 13, 10:10pm EDT

Mon May 13, 9:10pm EDT

Mon May 13, 8:10pm EDT

Mon May 13, 7:10pm EDT

Mon May 13, 6:10pm EDT

Mon May 13, 5:10pm EDT

Mon May 13, 4:10pm EDT

Mon May 13, 3:10pm EDT

Mon May 13, 2:10pm EDT

Mon May 13, 1:10pm EDT

Mon May 13, 12:10pm EDT

Mon May 13, 11:10am EDT

Mon May 13, 10:10am EDT

Mon May 13, 9:10am EDT

Mon May 13, 8:10am EDT

Mon May 13, 7:10am EDT

Mon May 13, 6:10am EDT

Mon May 13, 5:10am EDT

Mon May 13, 4:10am EDT

Mon May 13, 3:10am EDT

Mon May 13, 2:10am EDT

Mon May 13, 1:10am EDT

Mon May 13, 12:10am EDT

Sun May 12, 11:10pm EDT

Sun May 12, 10:10pm EDT

Sun May 12, 9:10pm EDT

Sun May 12, 8:10pm EDT

Sun May 12, 7:10pm EDT

Sun May 12, 6:10pm EDT

Sun May 12, 5:10pm EDT

Sun May 12, 4:10pm EDT

Sun May 12, 3:10pm EDT

Sun May 12, 2:10pm EDT

Sun May 12, 1:10pm EDT

Sun May 12, 12:10pm EDT

Sun May 12, 11:10am EDT

Sun May 12, 10:10am EDT

Sun May 12, 9:10am EDT

Sun May 12, 8:10am EDT

Sun May 12, 7:10am EDT

Sun May 12, 6:10am EDT

Sun May 12, 5:10am EDT

Sun May 12, 4:10am EDT

Sun May 12, 3:10am EDT

Sun May 12, 2:10am EDT

Sun May 12, 1:10am EDT

Sun May 12, 12:10am EDT

Sat May 11, 11:10pm EDT

Sat May 11, 10:10pm EDT

Sat May 11, 9:10pm EDT

Sat May 11, 8:10pm EDT

Sat May 11, 7:10pm EDT

Sat May 11, 6:10pm EDT

Sat May 11, 5:10pm EDT

Sat May 11, 4:10pm EDT

Sat May 11, 3:10pm EDT

Sat May 11, 2:10pm EDT

Sat May 11, 1:10pm EDT

Sat May 11, 12:10pm EDT

Sat May 11, 11:10am EDT

Sat May 11, 10:10am EDT

Sat May 11, 9:10am EDT

Sat May 11, 8:10am EDT

Sat May 11, 7:10am EDT

Sat May 11, 6:10am EDT

Sat May 11, 5:10am EDT

Sat May 11, 4:10am EDT

Sat May 11, 3:10am EDT

Sat May 11, 2:10am EDT

Sat May 11, 1:10am EDT

Sat May 11, 12:10am EDT

Fri May 10, 11:10pm EDT